Year,Month,Day,Hour,Minute,Value (Times are PST for temperature in C)
2016,05,03,00,00,13.90
2016,05,03,00,01,13.90
2016,05,03,00,02,13.90
2016,05,03,00,03,13.90
2016,05,03,00,04,13.90
2016,05,03,00,05,13.80
2016,05,03,00,06,13.80
2016,05,03,00,07,13.80
2016,05,03,00,08,13.80
2016,05,03,00,09,13.70
2016,05,03,00,10,13.70
2016,05,03,00,11,13.70
2016,05,03,00,12,13.60
2016,05,03,00,13,13.60
2016,05,03,00,14,13.60
2016,05,03,00,15,13.60
2016,05,03,00,16,13.50
2016,05,03,00,17,13.50
2016,05,03,00,18,13.40
2016,05,03,00,19,13.30
2016,05,03,00,20,13.30
2016,05,03,00,21,13.30
2016,05,03,00,22,13.20
2016,05,03,00,23,13.20
2016,05,03,00,24,13.20
2016,05,03,00,25,13.20
2016,05,03,00,26,13.20
2016,05,03,00,27,13.20
2016,05,03,00,28,13.20
2016,05,03,00,29,13.20
2016,05,03,00,30,13.20
2016,05,03,00,31,13.20
2016,05,03,00,32,13.20
2016,05,03,00,33,13.10
2016,05,03,00,34,13.10
2016,05,03,00,35,13.10
2016,05,03,00,36,13.10
2016,05,03,00,37,13.00
2016,05,03,00,38,13.00
2016,05,03,00,39,12.90
2016,05,03,00,40,12.90
2016,05,03,00,41,12.90
2016,05,03,00,42,12.80
2016,05,03,00,43,12.80
2016,05,03,00,44,12.80
2016,05,03,00,45,12.80
2016,05,03,00,46,12.80
2016,05,03,00,47,12.80
2016,05,03,00,48,12.80
2016,05,03,00,49,12.80
2016,05,03,00,50,12.80
2016,05,03,00,51,12.80
2016,05,03,00,52,12.80
2016,05,03,00,53,12.80
2016,05,03,00,54,12.80
2016,05,03,00,55,12.80
2016,05,03,00,56,12.80
2016,05,03,00,57,12.70
2016,05,03,00,58,12.70
2016,05,03,00,59,12.70
2016,05,03,01,00,12.70
2016,05,03,01,01,12.70
2016,05,03,01,02,12.70
2016,05,03,01,03,12.70
2016,05,03,01,04,12.70
2016,05,03,01,05,12.70
2016,05,03,01,06,12.70
2016,05,03,01,07,12.70
2016,05,03,01,08,12.70
2016,05,03,01,09,12.70
2016,05,03,01,10,12.70
2016,05,03,01,11,12.70
2016,05,03,01,12,12.70
2016,05,03,01,13,12.70
2016,05,03,01,14,12.70
2016,05,03,01,15,12.60
2016,05,03,01,16,12.60
2016,05,03,01,17,12.60
2016,05,03,01,18,12.60
2016,05,03,01,19,12.60
2016,05,03,01,20,12.60
2016,05,03,01,21,12.60
2016,05,03,01,22,12.60
2016,05,03,01,23,12.60
2016,05,03,01,24,12.70
2016,05,03,01,25,12.70
2016,05,03,01,26,12.60
2016,05,03,01,27,12.60
2016,05,03,01,28,12.60
2016,05,03,01,29,12.60
2016,05,03,01,30,12.60
2016,05,03,01,31,12.70
2016,05,03,01,32,12.70
2016,05,03,01,33,12.70
2016,05,03,01,34,12.70
2016,05,03,01,35,12.70
2016,05,03,01,36,12.70
2016,05,03,01,37,12.70
2016,05,03,01,38,12.70
2016,05,03,01,39,12.70
2016,05,03,01,40,12.80
2016,05,03,01,41,12.80
2016,05,03,01,42,12.80
2016,05,03,01,43,12.80
2016,05,03,01,44,12.80
2016,05,03,01,45,12.70
2016,05,03,01,46,12.70
2016,05,03,01,47,12.70
2016,05,03,01,48,12.70
2016,05,03,01,49,12.70
2016,05,03,01,50,12.70
2016,05,03,01,51,12.70
2016,05,03,01,52,12.70
2016,05,03,01,53,12.70
2016,05,03,01,54,12.80
2016,05,03,01,55,12.80
2016,05,03,01,56,12.80
2016,05,03,01,57,12.80
2016,05,03,01,58,12.80
2016,05,03,01,59,12.90
2016,05,03,02,00,12.90
2016,05,03,02,01,12.90
2016,05,03,02,02,12.90
2016,05,03,02,03,12.90
2016,05,03,02,04,12.90
2016,05,03,02,05,12.90
2016,05,03,02,06,12.90
2016,05,03,02,07,12.90
2016,05,03,02,08,12.90
2016,05,03,02,09,12.90
2016,05,03,02,10,12.90
2016,05,03,02,11,12.90
2016,05,03,02,12,13.00
2016,05,03,02,13,13.00
2016,05,03,02,14,13.10
2016,05,03,02,15,13.10
2016,05,03,02,16,13.10
2016,05,03,02,17,13.10
2016,05,03,02,18,13.10
2016,05,03,02,19,13.10
2016,05,03,02,20,13.10
2016,05,03,02,21,13.10
2016,05,03,02,22,13.10
2016,05,03,02,23,13.10
2016,05,03,02,24,13.10
2016,05,03,02,25,13.10
2016,05,03,02,26,13.20
2016,05,03,02,27,13.20
2016,05,03,02,28,13.20
2016,05,03,02,29,13.20
2016,05,03,02,30,13.20
2016,05,03,02,31,13.20
2016,05,03,02,32,13.20
2016,05,03,02,33,13.20
2016,05,03,02,34,13.30
2016,05,03,02,35,13.30
2016,05,03,02,36,13.30
2016,05,03,02,37,13.30
2016,05,03,02,38,13.30
2016,05,03,02,39,13.30
2016,05,03,02,40,13.40
2016,05,03,02,41,13.30
2016,05,03,02,42,13.40
2016,05,03,02,43,13.40
2016,05,03,02,44,13.30
2016,05,03,02,45,13.30
2016,05,03,02,46,13.30
2016,05,03,02,47,13.30
2016,05,03,02,48,13.30
2016,05,03,02,49,13.30
2016,05,03,02,50,13.30
2016,05,03,02,51,13.30
2016,05,03,02,52,13.30
2016,05,03,02,53,13.30
2016,05,03,02,54,13.30
2016,05,03,02,55,13.30
2016,05,03,02,56,13.30
2016,05,03,02,57,13.30
2016,05,03,02,58,13.30
2016,05,03,02,59,13.30
2016,05,03,03,00,13.30
2016,05,03,03,01,13.40
2016,05,03,03,02,13.40
2016,05,03,03,03,13.40
2016,05,03,03,04,13.40
2016,05,03,03,05,13.40
2016,05,03,03,06,13.40
2016,05,03,03,07,13.40
2016,05,03,03,08,13.40
2016,05,03,03,09,13.30
2016,05,03,03,10,13.30
2016,05,03,03,11,13.30
2016,05,03,03,12,13.30
2016,05,03,03,13,13.30
2016,05,03,03,14,13.40
2016,05,03,03,15,13.40
2016,05,03,03,16,13.50
2016,05,03,03,17,13.50
2016,05,03,03,18,13.60
2016,05,03,03,19,13.60
2016,05,03,03,20,13.60
2016,05,03,03,21,13.60
2016,05,03,03,22,13.60
2016,05,03,03,23,13.60
2016,05,03,03,24,13.60
2016,05,03,03,25,13.60
2016,05,03,03,26,13.60
2016,05,03,03,27,13.50
2016,05,03,03,28,13.50
2016,05,03,03,29,13.50
2016,05,03,03,30,13.40
2016,05,03,03,31,13.40
2016,05,03,03,32,13.40
2016,05,03,03,33,13.40
2016,05,03,03,34,13.40
2016,05,03,03,35,13.40
2016,05,03,03,36,13.50
2016,05,03,03,37,13.50
2016,05,03,03,38,13.60
2016,05,03,03,39,13.60
2016,05,03,03,40,13.60
2016,05,03,03,41,13.60
2016,05,03,03,42,13.70
2016,05,03,03,43,13.70
2016,05,03,03,44,13.70
2016,05,03,03,45,13.70
2016,05,03,03,46,13.70
2016,05,03,03,47,13.80
2016,05,03,03,48,13.80
2016,05,03,03,49,13.80
2016,05,03,03,50,13.70
2016,05,03,03,51,13.70
2016,05,03,03,52,13.70
2016,05,03,03,53,13.70
2016,05,03,03,54,13.80
2016,05,03,03,55,13.80
2016,05,03,03,56,13.80
2016,05,03,03,57,13.80
2016,05,03,03,58,13.80
2016,05,03,03,59,13.80
2016,05,03,04,00,13.80
2016,05,03,04,01,13.80
2016,05,03,04,02,13.80
2016,05,03,04,03,13.80
2016,05,03,04,04,13.80
2016,05,03,04,05,13.80
2016,05,03,04,06,13.80
2016,05,03,04,07,13.80
2016,05,03,04,08,13.90
2016,05,03,04,09,13.90
2016,05,03,04,10,13.90
2016,05,03,04,11,13.90
2016,05,03,04,12,13.90
2016,05,03,04,13,14.00
2016,05,03,04,14,14.00
2016,05,03,04,15,14.00
2016,05,03,04,16,14.10
2016,05,03,04,17,14.10
2016,05,03,04,18,14.10
2016,05,03,04,19,14.10
2016,05,03,04,20,14.10
2016,05,03,04,21,14.10
2016,05,03,04,22,14.10
2016,05,03,04,23,14.20
2016,05,03,04,24,14.20
2016,05,03,04,25,14.20
2016,05,03,04,26,14.20
2016,05,03,04,27,14.20
2016,05,03,04,28,14.20
2016,05,03,04,29,14.30
2016,05,03,04,30,14.30
2016,05,03,04,31,14.30
2016,05,03,04,32,14.30
2016,05,03,04,33,14.30
2016,05,03,04,34,14.30
2016,05,03,04,35,14.30
2016,05,03,04,36,14.30
2016,05,03,04,37,14.30
2016,05,03,04,38,14.30
2016,05,03,04,39,14.30
2016,05,03,04,40,14.30
2016,05,03,04,41,14.30
2016,05,03,04,42,14.40
2016,05,03,04,43,14.40
2016,05,03,04,44,14.40
2016,05,03,04,45,14.40
2016,05,03,04,46,14.40
2016,05,03,04,47,14.40
2016,05,03,04,48,14.40
2016,05,03,04,49,14.50
2016,05,03,04,50,14.50
2016,05,03,04,51,14.50
2016,05,03,04,52,14.50
2016,05,03,04,53,14.40
2016,05,03,04,54,14.40
2016,05,03,04,55,14.50
2016,05,03,04,56,14.50
2016,05,03,04,57,14.50
2016,05,03,04,58,14.50
2016,05,03,04,59,14.50
2016,05,03,05,00,14.50
2016,05,03,05,01,14.50
2016,05,03,05,02,14.50
2016,05,03,05,03,14.50
2016,05,03,05,04,14.50
2016,05,03,05,05,14.50
2016,05,03,05,06,14.50
2016,05,03,05,07,14.40
2016,05,03,05,08,14.40
2016,05,03,05,09,14.40
2016,05,03,05,10,14.40
2016,05,03,05,11,14.40
2016,05,03,05,12,14.40
2016,05,03,05,13,14.40
2016,05,03,05,14,14.40
2016,05,03,05,15,14.40
2016,05,03,05,16,14.40
2016,05,03,05,17,14.40
2016,05,03,05,18,14.40
2016,05,03,05,19,14.40
2016,05,03,05,20,14.40
2016,05,03,05,21,14.40
2016,05,03,05,22,14.50
2016,05,03,05,23,14.50
2016,05,03,05,24,14.50
2016,05,03,05,25,14.60
2016,05,03,05,26,14.60
2016,05,03,05,27,14.60
2016,05,03,05,28,14.60
2016,05,03,05,29,14.60
2016,05,03,05,30,14.60
2016,05,03,05,31,14.60
2016,05,03,05,32,14.60
2016,05,03,05,33,14.60
2016,05,03,05,34,14.70
2016,05,03,05,35,14.70
2016,05,03,05,36,14.70
2016,05,03,05,37,14.70
2016,05,03,05,38,14.80
2016,05,03,05,39,14.80
2016,05,03,05,40,14.80
2016,05,03,05,41,14.90
2016,05,03,05,42,14.90
2016,05,03,05,43,14.90
2016,05,03,05,44,15.00
2016,05,03,05,45,15.00
2016,05,03,05,46,15.00
2016,05,03,05,47,15.00
2016,05,03,05,48,15.00
2016,05,03,05,49,15.00
2016,05,03,05,50,15.00
2016,05,03,05,51,15.10
2016,05,03,05,52,15.10
2016,05,03,05,53,15.10
2016,05,03,05,54,15.10
2016,05,03,05,55,15.20
2016,05,03,05,56,15.20
2016,05,03,05,57,15.20
2016,05,03,05,58,15.20
2016,05,03,05,59,15.20
2016,05,03,06,00,15.20
2016,05,03,06,01,15.20
2016,05,03,06,02,15.20
2016,05,03,06,03,15.30
2016,05,03,06,04,15.30
2016,05,03,06,05,15.30
2016,05,03,06,06,15.40
2016,05,03,06,07,15.40
2016,05,03,06,08,15.40
2016,05,03,06,09,15.50
2016,05,03,06,10,15.50
2016,05,03,06,11,15.50
2016,05,03,06,12,15.50
2016,05,03,06,13,15.60
2016,05,03,06,14,15.60
2016,05,03,06,15,15.50
2016,05,03,06,16,15.50
2016,05,03,06,17,15.50
2016,05,03,06,18,15.50
2016,05,03,06,19,15.50
2016,05,03,06,20,15.50
2016,05,03,06,21,15.50
2016,05,03,06,22,15.60
2016,05,03,06,23,15.60
2016,05,03,06,24,15.60
2016,05,03,06,25,15.60
2016,05,03,06,26,15.60
2016,05,03,06,27,15.60
2016,05,03,06,28,15.60
2016,05,03,06,29,15.70
2016,05,03,06,30,15.70
2016,05,03,06,31,15.70
2016,05,03,06,32,15.80
2016,05,03,06,33,15.80
2016,05,03,06,34,15.80
2016,05,03,06,35,15.70
2016,05,03,06,36,15.70
2016,05,03,06,37,15.70
2016,05,03,06,38,15.70
2016,05,03,06,39,15.70
2016,05,03,06,40,15.80
2016,05,03,06,41,15.80
2016,05,03,06,42,15.80
2016,05,03,06,43,15.90
2016,05,03,06,44,15.90
2016,05,03,06,45,15.90
2016,05,03,06,46,16.00
2016,05,03,06,47,16.00
2016,05,03,06,48,16.10
2016,05,03,06,49,16.10
2016,05,03,06,50,16.10
2016,05,03,06,51,16.10
2016,05,03,06,52,16.10
2016,05,03,06,53,16.10
2016,05,03,06,54,16.20
2016,05,03,06,55,16.20
2016,05,03,06,56,16.20
2016,05,03,06,57,16.20
2016,05,03,06,58,16.20
2016,05,03,06,59,16.20
2016,05,03,07,00,16.20
2016,05,03,07,01,16.30
2016,05,03,07,02,16.30
2016,05,03,07,03,16.30
2016,05,03,07,04,16.30
2016,05,03,07,05,16.30
2016,05,03,07,06,16.30
2016,05,03,07,07,16.30
2016,05,03,07,08,16.30
2016,05,03,07,09,16.30
2016,05,03,07,10,16.30
2016,05,03,07,11,16.30
2016,05,03,07,12,16.30
2016,05,03,07,13,16.30
2016,05,03,07,14,16.30
2016,05,03,07,15,16.30
2016,05,03,07,16,16.30
2016,05,03,07,17,16.20
2016,05,03,07,18,16.20
2016,05,03,07,19,16.20
2016,05,03,07,20,16.20
2016,05,03,07,21,16.20
2016,05,03,07,22,16.20
2016,05,03,07,23,16.20
2016,05,03,07,24,16.30
2016,05,03,07,25,16.30
2016,05,03,07,26,16.30
2016,05,03,07,27,16.30
2016,05,03,07,28,16.30
2016,05,03,07,29,16.30
2016,05,03,07,30,16.30
2016,05,03,07,31,16.40
2016,05,03,07,32,16.40
2016,05,03,07,33,16.40
2016,05,03,07,34,16.40
2016,05,03,07,35,16.30
2016,05,03,07,36,16.30
2016,05,03,07,37,16.30
2016,05,03,07,38,16.30
2016,05,03,07,39,16.30
2016,05,03,07,40,16.30
2016,05,03,07,41,16.30
2016,05,03,07,42,16.30
2016,05,03,07,43,16.40
2016,05,03,07,44,16.40
2016,05,03,07,45,16.30
2016,05,03,07,46,16.30
2016,05,03,07,47,16.30
2016,05,03,07,48,16.30
2016,05,03,07,49,16.30
2016,05,03,07,50,16.30
2016,05,03,07,51,16.30
2016,05,03,07,52,16.30
2016,05,03,07,53,16.30
2016,05,03,07,54,16.30
2016,05,03,07,55,16.30
2016,05,03,07,56,16.30
2016,05,03,07,57,16.30
2016,05,03,07,58,16.30
2016,05,03,07,59,16.30
2016,05,03,08,00,16.40
2016,05,03,08,01,16.50
2016,05,03,08,02,16.60
2016,05,03,08,03,16.60
2016,05,03,08,04,16.60
2016,05,03,08,05,16.60
2016,05,03,08,06,16.60
2016,05,03,08,07,16.50
2016,05,03,08,08,16.50
2016,05,03,08,09,16.50
2016,05,03,08,10,16.50
2016,05,03,08,11,16.50
2016,05,03,08,12,16.40
2016,05,03,08,13,16.40
2016,05,03,08,14,16.40
2016,05,03,08,15,16.40
2016,05,03,08,16,16.40
2016,05,03,08,17,16.40
2016,05,03,08,18,16.30
2016,05,03,08,19,16.30
2016,05,03,08,20,16.30
2016,05,03,08,21,16.30
2016,05,03,08,22,16.30
2016,05,03,15,25,16.20
2016,05,03,15,26,16.20
2016,05,03,15,27,16.20
2016,05,03,15,28,16.20
2016,05,03,15,29,16.20
2016,05,03,15,30,16.20
2016,05,03,15,31,16.20
2016,05,03,15,32,16.20
2016,05,03,15,33,16.10
2016,05,03,15,34,16.10
2016,05,03,15,35,16.10
2016,05,03,15,36,16.10
2016,05,03,15,37,16.10
2016,05,03,15,38,16.10
2016,05,03,15,39,16.10
2016,05,03,15,40,16.10
2016,05,03,15,41,16.10
2016,05,03,15,42,16.20
2016,05,03,15,43,16.20
2016,05,03,15,44,16.20
2016,05,03,15,45,16.20
2016,05,03,15,46,16.20
2016,05,03,15,47,16.20
2016,05,03,15,48,16.20
2016,05,03,15,49,16.20
2016,05,03,15,50,16.10
2016,05,03,15,51,16.10
2016,05,03,15,52,16.10
2016,05,03,15,53,16.10
2016,05,03,15,54,16.00
2016,05,03,15,55,16.00
2016,05,03,15,56,16.00
2016,05,03,15,57,15.90
2016,05,03,15,58,15.90
2016,05,03,15,59,15.90
2016,05,03,16,00,15.90
2016,05,03,16,01,16.00
2016,05,03,16,02,16.00
2016,05,03,16,03,16.00
2016,05,03,16,04,15.90
2016,05,03,16,05,15.90
2016,05,03,16,06,15.90
2016,05,03,16,07,15.90
2016,05,03,16,08,15.90
2016,05,03,16,09,15.90
2016,05,03,16,10,15.90
2016,05,03,16,11,15.90
2016,05,03,16,12,15.90
2016,05,03,16,13,15.90
2016,05,03,16,14,15.80
2016,05,03,16,15,15.80
2016,05,03,16,16,15.80
2016,05,03,16,17,15.80
2016,05,03,16,18,15.80
2016,05,03,16,19,15.80
2016,05,03,16,20,15.70
2016,05,03,16,21,15.70
2016,05,03,16,22,15.70
2016,05,03,16,23,15.70
2016,05,03,16,24,15.70
2016,05,03,16,25,15.70
2016,05,03,16,26,15.70
2016,05,03,16,27,15.70
2016,05,03,16,28,15.70
2016,05,03,16,29,15.70
2016,05,03,16,30,15.70
2016,05,03,16,31,15.70
2016,05,03,16,32,15.70
2016,05,03,16,33,15.70
2016,05,03,16,34,15.70
2016,05,03,16,35,15.70
2016,05,03,16,36,15.80
2016,05,03,16,37,15.80
2016,05,03,16,38,15.80
2016,05,03,16,39,15.80
2016,05,03,16,40,15.80
2016,05,03,16,41,15.80
2016,05,03,16,42,15.80
2016,05,03,16,43,15.80
2016,05,03,16,44,15.80
2016,05,03,16,45,15.80
2016,05,03,16,46,15.80
2016,05,03,16,47,15.80
2016,05,03,16,48,15.80
2016,05,03,16,49,15.80
2016,05,03,16,50,15.80
2016,05,03,16,51,15.80
2016,05,03,16,52,15.80
2016,05,03,16,53,15.80
2016,05,03,16,54,15.80
2016,05,03,16,55,15.80
2016,05,03,16,56,15.80
2016,05,03,16,57,15.80
2016,05,03,16,58,15.70
2016,05,03,16,59,15.70
2016,05,03,17,00,15.70
2016,05,03,17,01,15.70
2016,05,03,17,02,15.70
2016,05,03,17,03,15.70
2016,05,03,17,04,15.80
2016,05,03,17,05,15.80
2016,05,03,17,06,15.70
2016,05,03,17,07,15.70
2016,05,03,17,08,15.70
2016,05,03,17,09,15.70
2016,05,03,17,10,15.70
2016,05,03,17,11,15.70
2016,05,03,17,12,15.70
2016,05,03,17,13,15.70
2016,05,03,17,14,15.70
2016,05,03,17,15,15.80
2016,05,03,17,16,15.80
2016,05,03,17,17,15.80
2016,05,03,17,18,15.80
2016,05,03,17,19,15.80
2016,05,03,17,20,15.70
2016,05,03,17,21,15.70
2016,05,03,17,22,15.80
2016,05,03,17,23,15.80
2016,05,03,17,24,15.80
2016,05,03,17,25,15.80
2016,05,03,17,26,15.80
2016,05,03,17,27,15.80
2016,05,03,17,28,15.70
2016,05,03,17,29,15.70
2016,05,03,17,30,15.70
2016,05,03,17,31,15.70
2016,05,03,17,32,15.70
2016,05,03,17,33,15.70
2016,05,03,17,34,15.70
2016,05,03,17,35,15.70
2016,05,03,17,36,15.70
2016,05,03,17,37,15.70
2016,05,03,17,38,15.70
2016,05,03,17,39,15.70
2016,05,03,17,40,15.70
2016,05,03,17,41,15.70
2016,05,03,17,42,15.70
2016,05,03,17,43,15.70
2016,05,03,17,44,15.70
2016,05,03,17,45,15.70
2016,05,03,17,46,15.70
2016,05,03,17,47,15.70
2016,05,03,17,48,15.70
2016,05,03,17,49,15.70
2016,05,03,17,50,15.70
2016,05,03,17,51,15.70
2016,05,03,17,52,15.60
2016,05,03,17,53,15.60
2016,05,03,17,54,15.60
2016,05,03,17,55,15.60
2016,05,03,17,56,15.60
2016,05,03,17,57,15.60
2016,05,03,17,58,15.60
2016,05,03,17,59,15.60
2016,05,03,18,00,15.60
2016,05,03,18,01,15.50
2016,05,03,18,02,15.50
2016,05,03,18,03,15.50
2016,05,03,18,04,15.50
2016,05,03,18,05,15.50
2016,05,03,18,06,15.50
2016,05,03,18,07,15.60
2016,05,03,18,08,15.50
2016,05,03,18,09,15.50
2016,05,03,18,10,15.50
2016,05,03,18,11,15.50
2016,05,03,18,12,15.50
2016,05,03,18,13,15.50
2016,05,03,18,14,15.50
2016,05,03,18,15,15.50
2016,05,03,18,16,15.50
2016,05,03,18,17,15.40
2016,05,03,18,18,15.40
2016,05,03,18,19,15.40
2016,05,03,18,20,15.40
2016,05,03,18,21,15.40
2016,05,03,18,22,15.40
2016,05,03,18,23,15.40
2016,05,03,18,24,15.30
2016,05,03,18,25,15.30
2016,05,03,18,26,15.30
2016,05,03,18,27,15.30
2016,05,03,18,28,15.30
2016,05,03,18,29,15.30
2016,05,03,18,30,15.30
2016,05,03,18,31,15.30
2016,05,03,18,32,15.30
2016,05,03,18,33,15.30
2016,05,03,18,34,15.20
2016,05,03,18,35,15.20
2016,05,03,18,36,15.20
2016,05,03,18,37,15.20
2016,05,03,18,38,15.20
2016,05,03,18,39,15.20
2016,05,03,18,40,15.20
2016,05,03,18,41,15.20
2016,05,03,18,42,15.20
2016,05,03,18,43,15.20
2016,05,03,18,44,15.20
2016,05,03,18,45,15.20
2016,05,03,18,46,15.20
2016,05,03,18,47,15.20
2016,05,03,18,48,15.20
2016,05,03,18,49,15.20
2016,05,03,18,50,15.20
2016,05,03,18,51,15.20
2016,05,03,18,52,15.20
2016,05,03,18,53,15.20
2016,05,03,18,54,15.20
2016,05,03,18,55,15.20
2016,05,03,18,56,15.20
2016,05,03,18,57,15.20
2016,05,03,18,58,15.30
2016,05,03,18,59,15.20
2016,05,03,19,00,15.20
2016,05,03,19,01,15.20
2016,05,03,19,02,15.20
2016,05,03,19,03,15.20
2016,05,03,19,04,15.20
2016,05,03,19,05,15.20
2016,05,03,19,06,15.20
2016,05,03,19,07,15.20
2016,05,03,19,08,15.10
2016,05,03,19,09,15.10
2016,05,03,19,10,15.10
2016,05,03,19,11,15.10
2016,05,03,19,12,15.10
2016,05,03,19,13,15.10
2016,05,03,19,14,15.00
2016,05,03,19,15,15.00
2016,05,03,19,16,15.00
2016,05,03,19,17,15.00
2016,05,03,19,18,14.90
2016,05,03,19,19,14.90
2016,05,03,19,20,14.90
2016,05,03,19,21,14.90
2016,05,03,19,22,14.90
2016,05,03,19,23,14.90
2016,05,03,19,24,14.90
2016,05,03,19,25,14.90
2016,05,03,19,26,14.90
2016,05,03,19,27,15.00
2016,05,03,19,28,15.00
2016,05,03,19,29,14.90
2016,05,03,19,30,14.90
2016,05,03,19,31,14.90
2016,05,03,19,32,14.90
2016,05,03,19,33,14.90
2016,05,03,19,34,14.90
2016,05,03,19,35,14.80
2016,05,03,19,36,14.80
2016,05,03,19,37,14.80
2016,05,03,19,38,14.80
2016,05,03,19,39,14.80
2016,05,03,19,40,14.80
2016,05,03,19,41,14.70
2016,05,03,19,42,14.70
2016,05,03,19,43,14.70
2016,05,03,19,44,14.70
2016,05,03,19,45,14.60
2016,05,03,19,46,14.60
2016,05,03,19,47,14.60
2016,05,03,19,48,14.50
2016,05,03,19,49,14.50
2016,05,03,19,50,14.40
2016,05,03,19,51,14.40
2016,05,03,19,52,14.40
2016,05,03,19,53,14.40
2016,05,03,19,54,14.30
2016,05,03,19,55,14.30
2016,05,03,19,56,14.30
2016,05,03,19,57,14.30
2016,05,03,19,58,14.30
2016,05,03,19,59,14.30
2016,05,03,20,00,14.30
2016,05,03,20,01,14.30
2016,05,03,20,02,14.30
2016,05,03,20,03,14.30
2016,05,03,20,04,14.30
2016,05,03,20,05,14.30
2016,05,03,20,06,14.30
2016,05,03,20,07,14.30
2016,05,03,20,08,14.30
2016,05,03,20,09,14.30
2016,05,03,20,10,14.30
2016,05,03,20,11,14.20
2016,05,03,20,12,14.20
2016,05,03,20,13,14.20
2016,05,03,20,14,14.20
2016,05,03,20,15,14.20
2016,05,03,20,16,14.20
2016,05,03,20,17,14.10
2016,05,03,20,18,14.10
2016,05,03,20,19,14.00
2016,05,03,20,20,13.90
2016,05,03,20,21,13.80
2016,05,03,20,22,13.80
2016,05,03,20,23,13.70
2016,05,03,20,24,13.70
2016,05,03,20,25,13.60
2016,05,03,20,26,13.50
2016,05,03,20,27,13.40
2016,05,03,20,28,13.30
2016,05,03,20,29,13.20
2016,05,03,20,30,13.20
2016,05,03,20,31,13.10
2016,05,03,20,32,13.00
2016,05,03,20,33,12.90
2016,05,03,20,34,12.80
2016,05,03,20,35,12.70
2016,05,03,20,36,12.60
2016,05,03,20,37,12.50
2016,05,03,20,38,12.40
2016,05,03,20,39,12.30
2016,05,03,20,40,12.20
2016,05,03,20,41,12.20
2016,05,03,20,42,12.10
2016,05,03,20,43,12.10
2016,05,03,20,44,12.00
2016,05,03,20,45,11.90
2016,05,03,20,46,11.90
2016,05,03,20,47,11.90
2016,05,03,20,48,11.80
2016,05,03,20,49,11.80
2016,05,03,20,50,11.80
2016,05,03,20,51,11.80
2016,05,03,20,52,11.80
2016,05,03,20,53,11.80
2016,05,03,20,54,11.80
2016,05,03,20,55,11.80
2016,05,03,20,56,11.70
2016,05,03,20,57,11.70
2016,05,03,20,58,11.70
2016,05,03,20,59,11.60
2016,05,03,21,00,11.60
2016,05,03,21,01,11.50
2016,05,03,21,02,11.50
2016,05,03,21,03,11.40
2016,05,03,21,04,11.40
2016,05,03,21,05,11.40
2016,05,03,21,06,11.30
2016,05,03,21,07,11.30
2016,05,03,21,08,11.30
2016,05,03,21,09,11.30
2016,05,03,21,10,11.30
2016,05,03,21,11,11.20
2016,05,03,21,12,11.20
2016,05,03,21,13,11.20
2016,05,03,21,14,11.20
2016,05,03,21,15,11.20
2016,05,03,21,16,11.10
2016,05,03,21,17,11.10
2016,05,03,21,18,11.10
2016,05,03,21,19,11.10
2016,05,03,21,20,11.10
2016,05,03,21,21,11.00
2016,05,03,21,22,11.00
2016,05,03,21,23,10.90
2016,05,03,21,24,10.90
2016,05,03,21,25,10.90
2016,05,03,21,26,10.90
2016,05,03,21,27,10.80
2016,05,03,21,28,10.80
2016,05,03,21,29,10.80
2016,05,03,21,30,10.80
2016,05,03,21,31,10.80
2016,05,03,21,32,10.80
2016,05,03,21,33,10.70
2016,05,03,21,34,10.70
2016,05,03,21,35,10.70
2016,05,03,21,36,10.70
2016,05,03,21,37,10.70
2016,05,03,21,38,10.60
2016,05,03,21,39,10.60
2016,05,03,21,40,10.60
2016,05,03,21,41,10.50
2016,05,03,21,42,10.40
2016,05,03,21,43,10.40
2016,05,03,21,44,10.40
2016,05,03,21,45,10.30
2016,05,03,21,46,10.30
2016,05,03,21,47,10.30
2016,05,03,21,48,10.20
2016,05,03,21,49,10.20
2016,05,03,21,50,10.20
2016,05,03,21,51,10.20
2016,05,03,21,52,10.10
2016,05,03,21,53,10.10
2016,05,03,21,54,10.00
2016,05,03,21,55,10.00
2016,05,03,21,56,9.90
2016,05,03,21,57,9.90
2016,05,03,21,58,9.90
2016,05,03,21,59,9.80
2016,05,03,22,00,9.80
2016,05,03,22,01,9.80
2016,05,03,22,02,9.80
2016,05,03,22,03,9.80
2016,05,03,22,04,9.80
2016,05,03,22,05,9.80
2016,05,03,22,06,9.80
2016,05,03,22,07,9.70
2016,05,03,22,08,9.70
2016,05,03,22,09,9.70
2016,05,03,22,10,9.70
2016,05,03,22,11,9.70
2016,05,03,22,12,9.60
2016,05,03,22,13,9.60
2016,05,03,22,14,9.60
2016,05,03,22,15,9.60
2016,05,03,22,16,9.60
2016,05,03,22,17,9.60
2016,05,03,22,18,9.50
2016,05,03,22,19,9.50
2016,05,03,22,20,9.50
2016,05,03,22,21,9.50
2016,05,03,22,22,9.50
2016,05,03,22,23,9.50
2016,05,03,22,24,9.40
2016,05,03,22,25,9.40
2016,05,03,22,26,9.40
2016,05,03,22,27,9.40
2016,05,03,22,28,9.40
2016,05,03,22,29,9.30
2016,05,03,22,30,9.30
2016,05,03,22,31,9.30
2016,05,03,22,32,9.30
2016,05,03,22,33,9.30
2016,05,03,22,34,9.30
2016,05,03,22,35,9.30
2016,05,03,22,36,9.30
2016,05,03,22,37,9.30
2016,05,03,22,38,9.30
2016,05,03,22,39,9.30
2016,05,03,22,40,9.30
2016,05,03,22,41,9.30
2016,05,03,22,42,9.30
2016,05,03,22,43,9.30
2016,05,03,22,44,9.30
2016,05,03,22,45,9.30
2016,05,03,22,46,9.30
2016,05,03,22,47,9.30
2016,05,03,22,48,9.30
2016,05,03,22,49,9.30
2016,05,03,22,50,9.30
2016,05,03,22,51,9.20
2016,05,03,22,52,9.20
2016,05,03,22,53,9.20
2016,05,03,22,54,9.20
2016,05,03,22,55,9.20
2016,05,03,22,56,9.20
2016,05,03,22,57,9.20
2016,05,03,22,58,9.20
2016,05,03,22,59,9.20
2016,05,03,23,00,9.20
2016,05,03,23,01,9.20
2016,05,03,23,02,9.20
2016,05,03,23,03,9.20
2016,05,03,23,04,9.20
2016,05,03,23,05,9.20
2016,05,03,23,06,9.20
2016,05,03,23,07,9.20
2016,05,03,23,08,9.20
2016,05,03,23,09,9.20
2016,05,03,23,10,9.20
2016,05,03,23,11,9.20
2016,05,03,23,12,9.20
2016,05,03,23,13,9.20
2016,05,03,23,14,9.20
2016,05,03,23,15,9.20
2016,05,03,23,16,9.20
2016,05,03,23,17,9.20
2016,05,03,23,18,9.20
2016,05,03,23,19,9.20
2016,05,03,23,20,9.20
2016,05,03,23,21,9.20
2016,05,03,23,22,9.20
2016,05,03,23,23,9.20
2016,05,03,23,24,9.20
2016,05,03,23,25,9.20
2016,05,03,23,26,9.20
2016,05,03,23,27,9.20
2016,05,03,23,28,9.20
2016,05,03,23,29,9.20
2016,05,03,23,30,9.20
2016,05,03,23,31,9.20
2016,05,03,23,32,9.10
2016,05,03,23,33,9.10
2016,05,03,23,34,9.10
2016,05,03,23,35,9.10
2016,05,03,23,36,9.10
2016,05,03,23,37,9.10
2016,05,03,23,38,9.20
2016,05,03,23,39,9.20
2016,05,03,23,40,9.20
2016,05,03,23,41,9.20
2016,05,03,23,42,9.10
2016,05,03,23,43,9.20
2016,05,03,23,44,9.20
2016,05,03,23,45,9.20
2016,05,03,23,46,9.10
2016,05,03,23,47,9.10
2016,05,03,23,48,9.10
2016,05,03,23,49,9.10
2016,05,03,23,50,9.10
2016,05,03,23,51,9.10
2016,05,03,23,52,9.10
2016,05,03,23,53,9.10
2016,05,03,23,54,9.10
2016,05,03,23,55,9.10
2016,05,03,23,56,9.10
2016,05,03,23,57,9.00
2016,05,03,23,58,9.00
2016,05,03,23,59,9.00
